| time (UTC) | temp F | wind direction | speed knots | gust knots | rain 1hr in | rain 24hr in | rain mn in | humidity % | barometer mb |
| 20260510091544 | 60 | 23 | 13.0 | 21.7 | 0.00 | 0.00 | 0.00 | 59 | |
| 20260510090527 | 60 | 34 | 13.0 | 22.6 | 0.00 | 0.00 | 0.00 | 59 | |
| 20260510085534 | 59 | 38 | 11.3 | 20.9 | 0.00 | 0.00 | 0.00 | 62 | |
| 20260510084519 | 59 | 28 | 14.8 | 20.9 | 0.00 | 0.00 | 0.00 | 64 | |
| 20260510083523 | 59 | 18 | 12.2 | 19.1 | 0.00 | 0.00 | 0.00 | 67 | |
| 20260510082536 | 59 | 22 | 13.9 | 19.1 | 0.00 | 0.00 | 0.00 | 66 | |
| 20260510081520 | 58 | 49 | 13.9 | 21.7 | 0.00 | 0.00 | 0.00 | 68 | |
| 20260510080532 | 58 | 37 | 13.0 | 20.9 | 0.00 | 0.00 | 0.00 | 68 | |
| 20260510075532 | 58 | 49 | 12.2 | 22.6 | 0.00 | 0.00 | 0.00 | 69 | |
| 20260510074545 | 58 | 31 | 13.0 | 21.7 | 0.00 | 0.00 | 0.00 | 70 | |
| 20260510073533 | 58 | 20 | 12.2 | 18.2 | 0.00 | 0.00 | 0.00 | 71 | |
| 20260510072536 | 57 | 25 | 12.2 | 21.7 | 0.00 | 0.00 | 0.00 | 72 | |
| 20260510071549 | 57 | 55 | 12.2 | 19.1 | 0.00 | 0.00 | 0.00 | 73 | |
| 20260510070531 | 57 | 54 | 9.6 | 16.5 | 0.00 | 0.00 | 0.00 | 74 | |
| 20260510065525 | 56 | 30 | 12.2 | 20.9 | 0.00 | 0.00 | 0.00 | 75 | |
| 20260510064528 | 56 | 48 | 10.4 | 16.5 | 0.00 | 0.00 | 0.00 | 76 | |
| 20260510063521 | 55 | 30 | 11.3 | 16.5 | 0.00 | 0.00 | 0.00 | 78 | |
| 20260510062520 | 55 | 9 | 8.7 | 18.2 | 0.00 | 0.00 | 0.00 | 80 | |
| 20260510061533 | 54 | 34 | 8.7 | 15.6 | 0.00 | 0.00 | 0.00 | 82 | |
| 20260510060516 | 53 | 34 | 8.7 | 17.4 | 0.00 | 0.00 | 0.00 | 85 | |
| 20260510055550 | 53 | 50 | 9.6 | 15.6 | 0.00 | 0.00 | 0.00 | 86 | |
| 20260510054544 | 52 | 46 | 7.8 | 13.9 | 0.00 | 0.00 | 0.00 | 87 | |
| 20260510053526 | 52 | 32 | 7.8 | 13.9 | 0.00 | 0.00 | 0.00 | 88 | |
| 20260510052538 | 51 | 39 | 8.7 | 15.6 | 0.00 | 0.00 | 0.00 | 89 | |
| 20260510051517 | 51 | 24 | 7.0 | 11.3 | 0.00 | 0.00 | 0.00 | 89 | |
| 20260510050530 | 50 | 12 | 6.1 | 9.6 | 0.00 | 0.00 | 0.00 | 89 | |
| 20260510045600 | 50 | 350 | 6.1 | 10.4 | 0.00 | 0.00 | 0.00 | 89 | |
| 20260510044522 | 50 | 29 | 5.2 | 7.8 | 0.00 | 0.00 | 0.00 | 88 | |
| 20260510043535 | 50 | 5 | 5.2 | 8.7 | 0.00 | 0.00 | 0.00 | 88 | |
| 20260510042539 | 50 | 25 | 5.2 | 8.7 | 0.00 | 0.00 | 0.00 | 88 | |
| 20260510041527 | 50 | 24 | 6.1 | 9.6 | 0.00 | 0.00 | 0.00 | 88 | |
| 20260510040530 | 50 | 30 | 7.0 | 11.3 | 0.00 | 0.00 | 0.00 | 88 | |
| 20260510035524 | 50 | 18 | 7.0 | 10.4 | 0.00 | 0.00 | 0.00 | 88 | |
| 20260510034527 | 50 | 37 | 6.1 | 10.4 | 0.00 | 0.00 | 0.00 | 88 | |
| 20260510033541 | 50 | 19 | 5.2 | 9.6 | 0.00 | 0.00 | 0.00 | 88 | |
| 20260510032525 | 50 | 38 | 5.2 | 8.7 | 0.00 | 0.00 | 0.00 | 88 | |
| 20260510031539 | 51 | 22 | 6.1 | 8.7 | 0.00 | 0.00 | 0.00 | 87 | |
| 20260510030521 | 51 | 21 | 5.2 | 9.6 | 0.00 | 0.00 | 0.00 | 87 | |
| 20260510025551 | 51 | 22 | 6.1 | 10.4 | 0.00 | 0.00 | 0.00 | 88 | |
| 20260510024544 | 51 | 31 | 6.1 | 10.4 | 0.00 | 0.00 | 0.00 | 88 | |
| 20260510023528 | 51 | 36 | 6.1 | 7.8 | 0.00 | 0.00 | 0.00 | 88 | |
| 20260510022540 | 51 | 28 | 4.3 | 7.0 | 0.00 | 0.00 | 0.00 | 88 | |
| 20260510021524 | 51 | 34 | 5.2 | 7.8 | 0.00 | 0.00 | 0.00 | 88 | |
| 20260510020528 | 51 | 19 | 5.2 | 8.7 | 0.00 | 0.00 | 0.00 | 88 | |
| 20260510015521 | 51 | 18 | 5.2 | 7.8 | 0.00 | 0.00 | 0.00 | 87 | |
| 20260510014521 | 51 | 17 | 4.3 | 7.0 | 0.00 | 0.00 | 0.00 | 87 | |
| 20260510013555 | 50 | 18 | 4.3 | 7.0 | 0.00 | 0.00 | 0.00 | 87 | |
| 20260510012518 | 50 | 20 | 5.2 | 7.8 | 0.00 | 0.00 | 0.00 | 86 | |
| 20260510011531 | 50 | 15 | 5.2 | 7.8 | 0.00 | 0.00 | 0.00 | 86 | |
| 20260510010546 | 51 | 17 | 5.2 | 7.8 | 0.00 | 0.00 | 0.00 | 85 | |
| 20260510005549 | 51 | 16 | 5.2 | 7.8 | 0.00 | 0.00 | 0.00 | 85 | |
| 20260510004541 | 51 | 29 | 5.2 | 8.7 | 0.00 | 0.00 | 0.00 | 84 | |
| 20260510003521 | 52 | 23 | 4.3 | 7.0 | 0.00 | 0.00 | 0.00 | 84 | |
| 20260510002534 | 52 | 26 | 3.5 | 7.0 | 0.00 | 0.00 | 0.00 | 83 | |
| 20260510001518 | 52 | 19 | 3.5 | 7.8 | 0.00 | 0.00 | 0.00 | 83 | |
| 20260510000530 | 52 | 28 | 5.2 | 8.7 | 0.00 | 0.00 | 0.00 | 83 | |
| 20260509235534 | 52 | 32 | 7.0 | 9.6 | 0.00 | 0.00 | 0.00 | 82 | |
| 20260509234527 | 52 | 34 | 5.2 | 7.8 | 0.00 | 0.00 | 0.00 | 82 | |
| 20260509233531 | 53 | 24 | 6.1 | 9.6 | 0.00 | 0.00 | 0.00 | 81 | |
| 20260509232525 | 53 | 24 | 7.0 | 9.6 | 0.00 | 0.00 | 0.00 | 80 | |
| 20260509231524 | 53 | 24 | 7.0 | 10.4 | 0.00 | 0.00 | 0.00 | 80 | |
| 20260509230537 | 53 | 34 | 7.0 | 10.4 | 0.00 | 0.00 | 0.00 | 80 | |
| 20260509225520 | 53 | 28 | 7.0 | 11.3 | 0.00 | 0.00 | 0.00 | 79 | |
| 20260509224524 | 53 | 32 | 7.0 | 10.4 | 0.00 | 0.00 | 0.00 | 79 | |
| 20260509223518 | 53 | 28 | 7.0 | 11.3 | 0.00 | 0.00 | 0.00 | 79 | |
| 20260509222522 | 53 | 30 | 6.1 | 11.3 | 0.00 | 0.00 | 0.00 | 79 | |
| 20260509221556 | 53 | 360 | 7.0 | 9.6 | 0.00 | 0.00 | 0.00 | 78 | |
| 20260509220541 | 53 | 13 | 6.1 | 10.4 | 0.00 | 0.00 | 0.00 | 78 | |
| 20260509215522 | 53 | 360 | 6.1 | 9.6 | 0.00 | 0.00 | 0.00 | 78 | |
| 20260509214536 | 53 | 13 | 7.0 | 9.6 | 0.00 | 0.00 | 0.00 | 77 | |
| 20260509213521 | 53 | 15 | 5.2 | 9.6 | 0.00 | 0.00 | 0.00 | 77 | |
| 20260509212534 | 53 | 23 | 5.2 | 9.6 | 0.00 | 0.00 | 0.00 | 77 | |
| 20260509211518 | 53 | 28 | 6.1 | 8.7 | 0.00 | 0.00 | 0.00 | 77 | |
| 20260509210523 | 54 | 14 | 6.1 | 8.7 | 0.00 | 0.00 | 0.00 | 76 | |
| 20260509205536 | 54 | 11 | 6.1 | 7.8 | 0.00 | 0.00 | 0.00 | 75 | |
| 20260509204546 | 55 | 15 | 5.2 | 7.8 | 0.00 | 0.00 | 0.00 | 74 | |
| 20260509203551 | 55 | 22 | 7.0 | 8.7 | 0.00 | 0.00 | 0.00 | 73 | |
| 20260509202523 | 56 | 22 | 6.1 | 7.8 | 0.00 | 0.00 | 0.00 | 72 | |
| 20260509201526 | 56 | 30 | 4.3 | 7.0 | 0.00 | 0.00 | 0.00 | 71 | |
| 20260509200539 | 56 | 32 | 4.3 | 9.6 | 0.00 | 0.00 | 0.00 | 71 | |
| 20260509195524 | 57 | 36 | 5.2 | 9.6 | 0.00 | 0.00 | 0.00 | 70 | |
| 20260509194537 | 57 | 5 | 6.1 | 8.7 | 0.00 | 0.00 | 0.00 | 70 | |
| 20260509193521 | 57 | 19 | 6.1 | 8.7 | 0.00 | 0.00 | 0.00 | 70 | |
| 20260509192521 | 58 | 20 | 5.2 | 9.6 | 0.00 | 0.00 | 0.00 | 70 | |
| 20260509191534 | 58 | 14 | 6.1 | 8.7 | 0.00 | 0.00 | 0.00 | 69 | |
| 20260509190518 | 59 | 9 | 7.0 | 8.7 | 0.00 | 0.00 | 0.00 | 68 | |
| 20260509185531 | 60 | 16 | 7.8 | 11.3 | 0.00 | 0.00 | 0.00 | 67 | |
| 20260509184535 | 60 | 9 | 7.8 | 12.2 | 0.00 | 0.00 | 0.00 | 66 | |
| 20260509183529 | 61 | 37 | 7.8 | 11.3 | 0.00 | 0.00 | 0.00 | 65 | |
| 20260509182532 | 62 | 22 | 6.1 | 12.2 | 0.00 | 0.00 | 0.00 | 65 | |
| 20260509181542 | 63 | 22 | 8.7 | 13.9 | 0.00 | 0.00 | 0.00 | 63 | |
| 20260509180526 | 63 | 11 | 7.8 | 12.2 | 0.00 | 0.00 | 0.00 | 63 | |
| 20260509175538 | 64 | 44 | 7.8 | 13.0 | 0.00 | 0.00 | 0.00 | 63 | |
| 20260509174523 | 64 | 10 | 7.8 | 15.6 | 0.00 | 0.00 | 0.00 | 62 | |
| 20260509173527 | 65 | 5 | 9.6 | 15.6 | 0.00 | 0.00 | 0.00 | 61 | |
| 20260509172540 | 65 | 360 | 7.0 | 15.6 | 0.00 | 0.00 | 0.00 | 63 | |
| 20260509171532 | 66 | 14 | 8.7 | 16.5 | 0.00 | 0.00 | 0.00 | 61 | |
| 20260509170536 | 66 | 13 | 9.6 | 16.5 | 0.00 | 0.00 | 0.00 | 61 | |
| 20260509165527 | 67 | 19 | 9.6 | 15.6 | 0.00 | 0.00 | 0.00 | 61 | |
| 20260509164531 | 67 | 17 | 7.8 | 15.6 | 0.00 | 0.00 | 0.00 | 60 | |
| 20260509163543 | 67 | 5 | 13.0 | 18.2 | 0.00 | 0.00 | 0.00 | 59 | |
| 20260509162527 | 68 | 5 | 10.4 | 17.4 | 0.00 | 0.00 | 0.00 | 58 | |
| 20260509161541 | 69 | 15 | 9.6 | 18.2 | 0.00 | 0.00 | 0.00 | 60 | |
| 20260509160525 | 69 | 31 | 12.2 | 18.2 | 0.00 | 0.00 | 0.00 | 58 | |
| 20260509155529 | 69 | 17 | 12.2 | 20.0 | 0.00 | 0.00 | 0.00 | 58 | |
| 20260509154521 | 69 | 24 | 10.4 | 16.5 | 0.00 | 0.00 | 0.00 | 58 | |
| 20260509153522 | 70 | 30 | 6.1 | 13.0 | 0.00 | 0.00 | 0.00 | 54 | |
| 20260509152556 | 70 | 24 | 7.8 | 15.6 | 0.00 | 0.00 | 0.00 | 53 | |
| 20260509151530 | 70 | 30 | 5.2 | 11.3 | 0.00 | 0.00 | 0.00 | 55 | |
| 20260509150553 | 69 | 40 | 5.2 | 10.4 | 0.00 | 0.00 | 0.00 | 55 | |
| 20260509145525 | 69 | 46 | 7.8 | 13.9 | 0.00 | 0.00 | 0.00 | 54 | |
| 20260509144530 | 70 | 56 | 7.0 | 13.0 | 0.00 | 0.00 | 0.00 | 53 | |
| 20260509143519 | 69 | 55 | 8.7 | 13.9 | 0.00 | 0.00 | 0.00 | 54 | |
| 20260509142519 | 69 | 82 | 6.1 | 10.4 | 0.00 | 0.00 | 0.00 | 55 | |
| 20260509141533 | 69 | 44 | 8.7 | 13.0 | 0.00 | 0.00 | 0.00 | 54 | |
| 20260509140607 | 70 | 89 | 7.8 | 11.3 | 0.00 | 0.00 | 0.00 | 56 | |
| 20260509135531 | 70 | 76 | 4.3 | 8.7 | 0.00 | 0.00 | 0.00 | 55 | |
| 20260509134543 | 69 | 54 | 3.5 | 12.2 | 0.00 | 0.00 | 0.00 | 54 | |
| 20260509133527 | 70 | 67 | 8.7 | 13.9 | 0.00 | 0.00 | 0.00 | 54 | |
| 20260509132532 | 70 | 76 | 6.1 | 12.2 | 0.00 | 0.00 | 0.00 | 56 | |
| 20260509131524 | 70 | 40 | 7.0 | 18.2 | 0.00 | 0.00 | 0.00 | 53 | |
| 20260509130524 | 69 | 86 | 7.0 | 13.0 | 0.00 | 0.00 | 0.00 | 56 | |
| 20260509125558 | 69 | 52 | 7.8 | 13.9 | 0.00 | 0.00 | 0.00 | 53 | |
| 20260509124522 | 69 | 45 | 2.6 | 13.0 | 0.00 | 0.00 | 0.00 | 55 | |
| 20260509123534 | 68 | 99 | 7.0 | 11.3 | 0.00 | 0.00 | 0.00 | 56 | |
| 20260509122518 | 70 | 53 | 8.7 | 11.3 | 0.00 | 0.00 | 0.00 | 54 | |
| 20260509121532 | 70 | 37 | 6.1 | 10.4 | 0.00 | 0.00 | 0.00 | 55 | |
| 20260509120536 | 70 | 71 | 7.8 | 10.4 | 0.00 | 0.00 | 0.00 | 55 | |
| 20260509115524 | 69 | 105 | 3.5 | 8.7 | 0.00 | 0.00 | 0.00 | 56 | |
| 20260509114529 | 69 | 60 | 0.9 | 12.2 | 0.00 | 0.00 | 0.00 | 54 | |
| 20260509113542 | 69 | 40 | 5.2 | 13.0 | 0.00 | 0.00 | 0.00 | 55 | |
| 20260509112526 | 69 | 40 | 7.8 | 11.3 | 0.00 | 0.00 | 0.00 | 54 | |
| 20260509111540 | 69 | 83 | 7.8 | 12.2 | 0.00 | 0.00 | 0.00 | 55 | |
| 20260509110525 | 69 | 50 | 3.5 | 13.9 | 0.00 | 0.00 | 0.00 | 55 | |
| 20260509105538 | 68 | 67 | 7.0 | 12.2 | 0.00 | 0.00 | 0.00 | 56 | |
| 20260509104522 | 68 | 58 | 8.7 | 13.9 | 0.00 | 0.00 | 0.00 | 54 | |
| 20260509103522 | 68 | 76 | 7.0 | 13.9 | 0.00 | 0.00 | 0.00 | 57 | |
| 20260509102556 | 68 | 65 | 7.0 | 13.0 | 0.00 | 0.00 | 0.00 | 58 | |
| 20260509101528 | 68 | 98 | 7.0 | 13.0 | 0.00 | 0.00 | 0.00 | 56 | |
| 20260509100533 | 67 | 42 | 7.0 | 12.2 | 0.00 | 0.00 | 0.00 | 57 | |
| 20260509095546 | 67 | 58 | 8.7 | 13.9 | 0.00 | 0.00 | 0.00 | 57 | |
| 20260509094530 | 67 | 80 | 9.6 | 13.0 | 0.00 | 0.00 | 0.00 | 56 | |
| 20260509093523 | 67 | 80 | 7.8 | 13.9 | 0.00 | 0.00 | 0.00 | 57 | |
| 20260509092553 | 66 | 87 | 8.7 | 11.3 | 0.00 | 0.00 | 0.00 | 60 |